#timestamp,LO_Frequency,Hit,StdDev 
1513998015.2,286046994.9,N
1513998035.0,286046993.6,N
1513998035.9,286046993.6,N
1513998055.8,286046995.9,N
1513998075.6,286046999.3,N
1513998095.4,286047001.4,N
1513998115.3,286047003.8,N
1513998135.1,286047001.8,N
1513998155.8,286047002.1,N
1513998175.7,286046998.1,N
1513998195.5,286047000.8,N
1513998215.3,286047000.0,N
1513998235.2,286047002.4,N
1513998255.9,286046997.5,N
1513998275.7,286046996.4,N
1513998295.6,286046990.0,N
1513998315.4,286046986.2,Y
1513998335.2,286046991.2,P
1513998355.1,286046987.9,P
1513998356.0,286046987.9,N
1513998375.8,286046986.7,N
1513998395.6,286046984.9,Y
1513998415.5,286046997.9,P
1513998435.3,286046999.5,N
1513998455.1,286046997.7,N
1513998475.9,286046993.3,N
1513998495.7,286046996.8,N
1513998515.5,286046995.0,N
1513998535.3,286046994.1,N
1513998555.2,286046994.2,N
1513998575.0,286046996.2,N
1513998575.9,286046996.2,N
1513998595.7,286046998.3,N
1513998615.6,286046996.6,N
1513998635.4,286047001.9,N
1513998655.2,286047000.4,N
1513998675.1,286046999.5,N
1513998676.0,286046999.5,N
1513998695.8,286046996.0,N
1513998715.6,286046994.0,N
1513998735.5,286046996.2,N
1513998755.3,286047000.9,N
1513998775.1,286046998.2,N
1513998795.9,286046999.9,N
1513998815.7,286046997.9,N
1513998835.5,286046997.3,N
1513998855.3,286046997.8,N
1513998875.2,286046998.0,N
1513998895.0,286046996.6,N
1513998895.9,286046996.6,N
1513998915.7,286046994.0,N
1513998935.6,286046993.2,N
1513998955.4,286046992.2,Y
1513998975.2,286046999.6,P
1513998995.1,286046996.9,N
1513998996.0,286046996.9,N
1513999015.8,286046996.2,Y
1513999035.6,286046995.9,P
1513999055.5,286046997.5,N
1513999075.3,286046994.5,P
1513999095.1,286046994.5,Y
1513999115.9,286046999.6,P
1513999135.7,286046995.5,N
1513999155.5,286046993.3,P
1513999175.4,286046993.7,N
1513999195.2,286046993.5,N
1513999215.0,286046996.0,N
1513999215.9,286046996.0,N
1513999235.8,286046997.1,N
1513999255.6,286046998.3,N
1513999275.4,286047003.9,N
1513999295.3,286047003.9,N
1513999315.1,286047001.3,N
1513999316.0,286047001.3,N
1513999335.8,286047001.6,N
1513999355.7,286046998.8,N
1513999375.5,286046999.4,N
1513999395.3,286046998.1,N
1513999415.1,286046999.9,N
1513999435.9,286047002.2,N
1513999455.7,286047002.6,N
1513999475.5,286047002.9,N
1513999495.4,286047004.4,N
1513999515.2,286047001.6,N
1513999535.0,286047001.3,N
1513999535.9,286047001.3,N
1513999555.8,286047005.9,N
1513999575.6,286047003.5,N
1513999595.4,286047003.1,N
1513999615.3,286047002.2,N
1513999635.1,286046999.6,N
1513999636.0,286046999.6,N
1513999655.8,286046998.0,N
1513999675.7,286046996.3,N
1513999695.5,286046992.7,N
1513999715.3,286046994.4,N
1513999735.2,286046997.1,N
1513999755.9,286047000.5,N
1513999775.7,286046999.8,N
1513999795.5,286047004.3,N
1513999815.4,286047001.2,N
1513999835.2,286046998.4,N
1513999855.0,286046999.0,N
1513999855.9,286046999.0,N
1513999875.8,286046998.1,N
1513999895.6,286047001.0,N
1513999915.4,286046998.1,N
1513999935.3,286046995.6,N
1513999955.1,286046998.0,N
1513999975.8,286046999.5,N
1513999995.7,286047000.5,N
1514000015.5,286046996.2,N
1514000035.3,286046993.6,N
1514000055.2,286046995.4,N
1514000075.9,286046993.5,N
1514000095.7,286046997.0,N
1514000115.6,286047000.5,N
1514000135.4,286047000.4,N
1514000155.2,286047002.1,N
1514000175.0,286047001.5,N
1514000176.0,286047001.5,N
1514000195.8,286047008.6,Y
1514000215.6,286047015.3,P
1514000235.5,286047019.2,N
1514000255.3,286047017.2,N
1514000275.1,286047011.2,N
1514000295.8,286047010.3,N
1514000315.7,286047009.2,N
1514000335.5,286047004.5,N
1514000355.3,286047005.1,N
1514000375.2,286047013.9,N
1514000395.9,286047009.9,N
1514000415.7,286047014.8,N
1514000435.6,286047014.6,N
1514000455.4,286047013.4,N
1514000475.2,286047018.8,Y
1514000495.1,286047010.2,P
1514000496.0,286047010.2,P
1514000515.8,286047009.3,P
1514000535.6,286047008.9,Y
1514000555.5,286047001.2,P
1514000575.3,286046998.4,N
1514000595.1,286046993.4,N
1514000615.9,286046998.0,N
1514000635.7,286046996.4,N
1514000655.5,286046993.4,N
1514000675.4,286046988.5,N
1514000695.2,286046987.5,N
1514000715.0,286046988.0,N
1514000715.9,286046988.0,N
1514000735.7,286046985.7,N
1514000755.6,286046986.9,N
1514000775.4,286046989.2,N
1514000795.2,286046991.8,N
1514000815.1,286046993.7,N
1514000816.0,286046993.7,N
1514000835.8,286046990.8,N
1514000855.6,286046992.9,N
1514000875.5,286046991.9,N
1514000895.3,286046996.0,N
1514000915.1,286046995.5,N
1514000935.9,286046991.8,N
1514000955.7,286046996.3,N
1514000975.5,286047000.7,N
1514000995.4,286047000.1,N
1514001015.2,286046999.9,N
1514001035.0,286046998.2,N
1514001035.9,286046998.2,N
1514001055.8,286046998.6,N
1514001075.6,286046993.7,N
1514001095.4,286047001.2,N
1514001115.2,286047002.1,N
1514001135.1,286047004.2,N
1514001136.0,286047004.2,N
1514001155.8,286047002.9,N
1514001175.6,286047003.2,N
1514001195.5,286046999.8,N
1514001215.3,286046999.3,N
1514001235.1,286046995.5,N
1514001255.9,286046996.9,N
1514001275.7,286047001.2,N
1514001295.5,286046997.7,N
1514001315.4,286047002.7,N
1514001335.2,286047005.7,N
1514001355.0,286047007.1,N
1514001355.9,286047007.1,N
1514001375.8,286047002.1,N
1514001395.6,286047004.3,N
1514001415.4,286047001.5,N
1514001435.3,286047000.2,N
1514001455.1,286047002.0,N
1514001456.0,286047002.0,N
1514001475.8,286047002.6,N
1514001495.6,286046998.7,N
1514001515.5,286046998.2,N
1514001535.3,286046999.3,N
1514001555.1,286046995.0,N
1514001575.9,286046999.6,N
1514001595.7,286046998.7,N
